This is the latest recevied weather packets stored in our database for station/object N7SWJ. If no packets are shown the sender has not sent any weather packets the latest 10 day(s).
| Time | Temp. | Humidity | Pressure | Rain* | Wind** | Luminosity | Snow |
|---|---|---|---|---|---|---|---|
| 1777423853 | 14.44° C | 30% | 1018.2 hPa | 0 mm | - | 61 W/m² | - |
| 1777423549 | 14.44° C | 29% | 1018.2 hPa | 0 mm | - | 57 W/m² | - |
| 1777423244 | 13.89° C | 30% | 1018.1 hPa | 0 mm | - | 57 W/m² | - |
| 1777422943 | 14.44° C | 31% | 1018 hPa | 0 mm | - | 50 W/m² | - |
| 1777422639 | 14.44° C | 32% | 1018 hPa | 0 mm | - | 64 W/m² | - |
| 1777422335 | 14.44° C | 32% | 1018.2 hPa | 0 mm | - | 61 W/m² | - |
| 1777422030 | 14.44° C | 33% | 1018 hPa | 0 mm | - | 64 W/m² | - |
| 1777421725 | 14.44° C | 34% | 1017.8 hPa | 0 mm | - | 62 W/m² | - |
| 1777421421 | 14.44° C | 33% | 1018 hPa | 0 mm | - | 48 W/m² | - |
| 1777421117 | 14.44° C | 32% | 1017.7 hPa | 0 mm | - | 53 W/m² | - |
| 1777420813 | 14.44° C | 32% | 1017.8 hPa | 0 mm | - | 53 W/m² | - |
| 1777420509 | 15° C | 32% | 1017.7 hPa | 0 mm | - | 51 W/m² | - |
| 1777420206 | 15.56° C | 31% | 1017.6 hPa | 0 mm | - | 52 W/m² | - |
| 1777419901 | 16.11° C | 30% | 1017.7 hPa | 0 mm | - | 57 W/m² | - |
| 1777419599 | 16.67° C | 29% | 1017.4 hPa | 0 mm | - | 108 W/m² | - |
| 1777419298 | 16.11° C | 30% | 1017.5 hPa | 0 mm | - | 302 W/m² | - |
| 1777418995 | 15.56° C | 30% | 1017.5 hPa | 0 mm | - | 263 W/m² | - |
| 1777418690 | 16.11° C | 30% | 1017.3 hPa | 0 mm | - | 110 W/m² | - |
| 1777418387 | 17.22° C | 29% | 1017.4 hPa | 0 mm | - | 150 W/m² | - |
| 1777418083 | 17.22° C | 29% | 1017.4 hPa | 0 mm | - | 383 W/m² | - |
| 1777417779 | 16.11° C | 31% | 1017.3 hPa | 0 mm | - | 206 W/m² | - |
| 1777417474 | 15.56° C | 30% | 1017.3 hPa | 0 mm | - | 102 W/m² | - |
| 1777417171 | 15.56° C | 32% | 1017 hPa | 0 mm | - | 89 W/m² | - |
| 1777416867 | 16.11° C | 30% | 1016.9 hPa | 0 mm | - | 94 W/m² | - |
| 1777416563 | 16.11° C | 31% | 1017.1 hPa | 0 mm | - | 100 W/m² | - |
* Rain latest hour (hover to see other rain measurements)
** Current wind speed in m/s (hover to see current wind gust speed)